Location: *
(41.3833°S, 177.8333°W)
Time: 20:05:11
(UTC+00:00)

Cosmos 1634 Rocket - Pass Details

Date: 01 April 2020
Orbit: 960 x 992 km, 82.9° (Epoch: 31 May)

Event Time Altitude Azimuth Distance (km) Brightness Sun altitude
Exits shadow 16:36:36 - 336° (NNW) 3,072 6.3 -17.9°
Reaches altitude 10° 16:37:36 10° 334° (NNW) 2,712 6.0 -17.7°
Maximum altitude 16:43:38 51° 258° (WSW) 1,217 4.1 -16.6°
Drops below altitude 10° 16:49:48 10° 182° (S) 2,765 6.4 -15.5°
Sets 16:52:26 0° 177° (S) 3,725 7.2 -15.0°
